Boulder City, NV

3:13 PM PDT on October 22, 2019 (GMT -0700)
Boulder City

Weather History for KBVU - September, 2019

Change the Weather History Date:

Friday, September 20, 2019

  Actual Average (WUND) Record (WUND)
Temperature  
Mean Temperature 74 °F -  
Max Temperature 82 °F - - (-1)
Min Temperature 66 °F - - (-1)
Cooling Degree Days 9    
Growing Degree Days 24 (Base 50)    
Moisture  
Dew Point 28 °F    
Average Humidity 20    
Maximum Humidity 28    
Minimum Humidity 10    
Precipitation  
Precipitation 0.00 in - - ()
Sea Level Pressure  
Sea Level Pressure 29.88 in    
Wind  
Wind Speed 11 mph ()    
Max Wind Speed 21 mph    
Max Gust Speed 30 mph    
Visibility 10.0 miles    
Events      
Averages and records for this station are not official NWS values.
T = Trace of Precipitation, MM = Missing Value Source: Averaged Metar Reports

Daily Weather History Graph

Daily Weather History Graph

Search for Another Location

Airport or City:

Astronomy

Sep. 20, 2019 Rise Set
Actual Time 6:25 AM PDT 6:39 PM PDT
Civil Twilight 6:00 AM PDT 7:05 PM PDT
Nautical Twilight 5:30 AM PDT 7:34 PM PDT
Astronomical Twilight 4:59 AM PDT 8:05 PM PDT
Moon 10:43 PM PDT (9/20) 12:23 PM PDT (9/20)
Length of Visible Light 13h 04m
Length of Day
12h 13m
Waning Gibbous, 64% of the Moon is Illuminated
Sep 20
Waning Gibbous
Sep 21
Last Quarter
Sep 28
New
Oct 5
First Quarter
Oct 13
Full

Hourly Weather History & Observations

Time (PDT) Temp. Dew Point Humidity Pressure Visibility Wind Dir Wind Speed Gust Speed Precip Events Conditions
12:35 AM 69.8 °F 28.4 °F 21% 29.80 in 10.0 mi NW 17.3 mph 23.0 mph N/A   Partly Cloudy
12:55 AM 69.8 °F 28.4 °F 21% 29.81 in 10.0 mi NW 11.5 mph - N/A   Scattered Clouds
1:15 AM 69.8 °F 28.4 °F 21% 29.82 in 10.0 mi NNW 9.2 mph 16.1 mph N/A   Mostly Cloudy
1:35 AM 69.8 °F 28.4 °F 21% 29.82 in 10.0 mi North 12.7 mph 21.9 mph N/A   Mostly Cloudy
1:55 AM 69.8 °F 28.4 °F 21% 29.82 in 10.0 mi NNW 11.5 mph - N/A   Mostly Cloudy
2:15 AM 69.8 °F 28.4 °F 21% 29.82 in 10.0 mi NNW 15.0 mph - N/A   Scattered Clouds
2:35 AM 69.8 °F 28.4 °F 21% 29.81 in 10.0 mi NW 10.4 mph - N/A   Mostly Cloudy
2:55 AM 69.8 °F 28.4 °F 21% 29.81 in 10.0 mi NW 12.7 mph - N/A   Mostly Cloudy
3:15 AM 69.8 °F 28.4 °F 21% 29.82 in 10.0 mi NW 13.8 mph 20.7 mph N/A   Mostly Cloudy
3:35 AM 69.8 °F 28.4 °F 21% 29.82 in 10.0 mi NW 17.3 mph - N/A   Mostly Cloudy
3:55 AM 68.0 °F 28.4 °F 23% 29.82 in 10.0 mi NW 17.3 mph - N/A   Mostly Cloudy
4:15 AM 68.0 °F 28.4 °F 23% 29.83 in 10.0 mi NNW 15.0 mph 21.9 mph N/A   Overcast
4:35 AM 68.0 °F 28.4 °F 23% 29.84 in 10.0 mi NNW 12.7 mph 18.4 mph N/A   Mostly Cloudy
4:55 AM 68.0 °F 30.2 °F 24% 29.84 in 10.0 mi NNW 12.7 mph 18.4 mph N/A   Mostly Cloudy
5:15 AM 68.0 °F 30.2 °F 24% 29.85 in 10.0 mi NW 9.2 mph 19.6 mph N/A   Scattered Clouds
5:35 AM 66.2 °F 30.2 °F 26% 29.86 in 10.0 mi NW 10.4 mph - N/A   Scattered Clouds
5:55 AM 66.2 °F 30.2 °F 26% 29.86 in 10.0 mi NW 16.1 mph 24.2 mph N/A   Partly Cloudy
6:15 AM 66.2 °F 30.2 °F 26% 29.87 in 10.0 mi NNW 16.1 mph 23.0 mph N/A   Clear
6:35 AM 66.2 °F 30.2 °F 26% 29.87 in 10.0 mi NW 18.4 mph - N/A   Clear
6:55 AM 66.2 °F 30.2 °F 26% 29.88 in 10.0 mi NW 17.3 mph 24.2 mph N/A   Clear
7:15 AM 66.2 °F 30.2 °F 26% 29.88 in 10.0 mi NW 13.8 mph 20.7 mph N/A   Clear
7:35 AM 66.2 °F 30.2 °F 26% 29.89 in 10.0 mi NW 20.7 mph 26.5 mph N/A   Clear
7:55 AM 68.0 °F 30.2 °F 24% 29.89 in 10.0 mi NNW 20.7 mph - N/A   Clear
8:15 AM 68.0 °F 30.2 °F 24% 29.91 in 10.0 mi NNW 12.7 mph 26.5 mph N/A   Clear
8:35 AM 69.8 °F 32.0 °F 25% 29.92 in 10.0 mi NNW 13.8 mph 25.3 mph N/A   Clear
8:55 AM 69.8 °F 32.0 °F 25% 29.92 in 10.0 mi NW 15.0 mph 27.6 mph N/A   Clear
9:15 AM 71.6 °F 32.0 °F 23% 29.93 in 10.0 mi NW 18.4 mph - N/A   Clear
9:35 AM 71.6 °F 32.0 °F 23% 29.94 in 10.0 mi NW 18.4 mph 27.6 mph N/A   Clear
9:55 AM 73.4 °F 32.0 °F 22% 29.94 in 10.0 mi NNW 16.1 mph 23.0 mph N/A   Clear
10:15 AM 75.2 °F 32.0 °F 21% 29.94 in 10.0 mi NW 18.4 mph - N/A   Clear
10:35 AM 75.2 °F 30.2 °F 19% 29.95 in 10.0 mi NW 13.8 mph 21.9 mph N/A   Clear
10:55 AM 75.2 °F 30.2 °F 19% 29.95 in 10.0 mi NW 11.5 mph 23.0 mph N/A   Clear
11:15 AM 77.0 °F 28.4 °F 17% 29.95 in 10.0 mi WNW 12.7 mph 18.4 mph N/A   Clear
11:35 AM 77.0 °F 26.6 °F 16% 29.94 in 10.0 mi NW 13.8 mph 20.7 mph N/A   Clear
11:55 AM 78.8 °F 26.6 °F 15% 29.94 in 10.0 mi West 5.8 mph 15.0 mph N/A   Clear
12:15 PM 77.0 °F 24.8 °F 14% 29.93 in 10.0 mi North 9.2 mph - N/A   Clear
12:35 PM 78.8 °F 26.6 °F 15% 29.93 in 10.0 mi West 8.1 mph 15.0 mph N/A   Clear
12:55 PM 78.8 °F 26.6 °F 15% 29.93 in 10.0 mi NNW 9.2 mph - N/A   Clear
1:15 PM 80.6 °F 26.6 °F 14% 29.92 in 10.0 mi North 8.1 mph 29.9 mph N/A   Clear
1:35 PM 80.6 °F 23.0 °F 12% 29.91 in 10.0 mi West 6.9 mph - N/A   Clear
1:55 PM 80.6 °F 23.0 °F 12% 29.90 in 10.0 mi Variable 5.8 mph 13.8 mph N/A   Clear
2:15 PM 80.6 °F 21.2 °F 11% 29.90 in 10.0 mi WNW 6.9 mph 17.3 mph N/A   Clear
2:35 PM 82.4 °F 21.2 °F 10% 29.89 in 10.0 mi WNW 8.1 mph 18.4 mph N/A   Clear
2:55 PM 80.6 °F 19.4 °F 10% 29.89 in 10.0 mi Calm Calm 12.7 mph N/A   Clear
3:15 PM 80.6 °F 21.2 °F 11% 29.89 in 10.0 mi NW 8.1 mph - N/A   Clear
3:35 PM 82.4 °F 23.0 °F 11% 29.89 in 10.0 mi NNW 9.2 mph - N/A   Clear
3:55 PM 80.6 °F 21.2 °F 11% 29.88 in 10.0 mi NNW 8.1 mph 15.0 mph N/A   Clear
4:15 PM 82.4 °F 19.4 °F 10% 29.88 in 10.0 mi Variable 4.6 mph 13.8 mph N/A   Clear
4:35 PM 82.4 °F 21.2 °F 10% 29.88 in 10.0 mi Variable 6.9 mph - N/A   Clear
4:55 PM 80.6 °F 21.2 °F 11% 29.88 in 10.0 mi Calm Calm - N/A   Clear
5:15 PM 80.6 °F 23.0 °F 12% 29.88 in 10.0 mi NE 4.6 mph - N/A   Clear
5:35 PM 80.6 °F 21.2 °F 11% 29.88 in 10.0 mi Calm Calm - N/A   Clear
5:55 PM 80.6 °F 21.2 °F 11% 29.87 in 10.0 mi Calm Calm - N/A   Clear
6:15 PM 80.6 °F 23.0 °F 12% 29.87 in 10.0 mi NE 4.6 mph - N/A   Clear
6:35 PM 78.8 °F 26.6 °F 15% 29.87 in 10.0 mi ENE 3.5 mph - N/A   Clear
6:55 PM 75.2 °F 30.2 °F 19% 29.88 in 10.0 mi NE 4.6 mph - N/A   Clear
7:15 PM 75.2 °F 28.4 °F 18% 29.88 in 10.0 mi ENE 5.8 mph - N/A   Clear
7:35 PM 73.4 °F 30.2 °F 20% 29.88 in 10.0 mi NE 5.8 mph - N/A   Partly Cloudy
7:55 PM 73.4 °F 30.2 °F 20% 29.89 in 10.0 mi NNE 5.8 mph - N/A   Partly Cloudy
8:15 PM 69.8 °F 33.8 °F 27% 29.89 in 10.0 mi NE 6.9 mph - N/A   Partly Cloudy
8:35 PM 69.8 °F 33.8 °F 27% 29.89 in 10.0 mi NNE 6.9 mph - N/A   Scattered Clouds
8:55 PM 69.8 °F 33.8 °F 27% 29.89 in 10.0 mi NNE 5.8 mph - N/A   Partly Cloudy
9:15 PM 68.0 °F 32.0 °F 26% 29.90 in 10.0 mi NNE 5.8 mph - N/A   Clear
9:35 PM 68.0 °F 33.8 °F 28% 29.90 in 10.0 mi NNE 8.1 mph - N/A   Clear
9:55 PM 69.8 °F 32.0 °F 25% 29.91 in 10.0 mi ENE 5.8 mph - N/A   Partly Cloudy
10:15 PM 68.0 °F 32.0 °F 26% 29.91 in 10.0 mi NE 6.9 mph - N/A   Partly Cloudy
10:35 PM 68.0 °F 26.6 °F 21% 29.91 in 10.0 mi NW 5.8 mph - N/A   Scattered Clouds
10:55 PM 68.0 °F 24.8 °F 20% 29.91 in 10.0 mi NNW 3.5 mph - N/A   Scattered Clouds
11:15 PM 66.2 °F 30.2 °F 26% 29.91 in 10.0 mi NW 4.6 mph - N/A   Partly Cloudy
11:35 PM 68.0 °F 28.4 °F 23% 29.92 in 10.0 mi NNW 3.5 mph - N/A   Partly Cloudy
11:55 PM 68.0 °F 28.4 °F 23% 29.92 in 10.0 mi Calm Calm - N/A   Clear